Location: Byhalia Creek
(34.8270°N, 89.8040°W)
Time: 08:29:06
(UTC+00:00)

Cosmos 2112 Rocket - Pass Details

Date: 22 April 2026
Orbit: 753 x 782 km, 74.0° (Epoch: 14 May)

Event Time Altitude Azimuth Distance (km) Brightness Sun altitude
Rises 01:06:31 0° 340° (NNW) 3,214 7.9 -6.7°
Reaches altitude 10° 01:08:54 10° 339° (NNW) 2,283 7.1 -7.2°
Maximum altitude 01:14:03 76° 255° (WSW) 778 4.2 -8.2°
Drops below altitude 10° 01:19:10 10° 170° (S) 2,266 6.1 -9.1°
Sets 01:21:32 0° 169° (SSE) 3,188 6.9 -9.6°
